Regional Weather Roundup
Issued by NWS

Home | Current Version | Previous Version | Graphics & Text | Print | Product List | Glossary Off
Versions: 1 2 3 4 5 6 7 8 9 10 11 12 13 14 15 16 17 18 19 20 21 22 23 24 25 26 27 28 29 30 31 32 33 34 35 36 37 38 39 40 41 42 43 44 45 46 47 48 49 50

583
ASUS43 KMKX 281100
RWRWI

WISCONSIN REGIONAL WEATHER ROUNDUP
NATIONAL WEATHER SERVICE MILWAUKEE/SULLIVAN WI
600 AM CDT SUN MAY 28 2017

NOTE: "FAIR" INDICATES FEW OR NO CLOUDS BELOW 12,000 FEET WITH NO
SIGNIFICANT WEATHER AND/OR OBSTRUCTIONS TO VISIBILITY.

WIZ001-002-006>008-014>016-023>028-281200-
NORTHWEST WISCONSIN

CITY           SKY/WX    TMP DP  RH WIND       PRES   REMARKS
SUPERIOR ARPT  NOT AVBL
ASHLAND        CLOUDY    59  47  64 E6        29.70F
HAYWARD        CLOUDY    55  50  83 S3        29.71F
SIREN          CLOUDY    55  47  75 CALM      29.69F
CUMBERLAND     MOCLDY    52  46  82 S6        29.73F
RICE LAKE      LGT RAIN  56  49  79 SE5       29.75F
CHETEK         CLOUDY    55  52  90 CALM      29.74F
LADYSMITH      CLOUDY    54  52  92 E3        29.76F
EAU CLAIRE     NOT AVBL
MENOMONIE      MOCLDY    55  51  85 SE3       29.74F
NEW RICHMOND   CLOUDY    55  47  72 S8        29.72F
OSCEOLA        CLOUDY    57  49  75 SW6       29.75S
$$

WIZ003>005-009-010-017-018-281200-
NORTH CENTRAL WISCONSIN

CITY           SKY/WX    TMP DP  RH WIND       PRES   REMARKS
MANITOWISH WTR DRIZZLE   53  53 100 W9        29.75F
ARBOR VITAE    DRIZZLE   55  52  90 S5        29.76S
WOODRUFF       DRIZZLE   55  52  90 S5        29.76S
RHINELANDER    LGT RAIN  55  52  89 SW7       29.79R
EAGLE RIVER    RAIN      51  50  97 SW6       29.75R
LAND O LAKES   CLOUDY    51  51  97 CALM      29.76F
PHILLIPS       LGT RAIN  53  51  93 W3        29.77S
TOMAHAWK       LGT RAIN  52  49  90 CALM      29.78R
MEDFORD        LGT RAIN  54  49  85 CALM      29.77F
MERRILL        LGT RAIN  55  53  94 SW5       29.79R
$$

WIZ029-030-035-036-043>047-281200-
CENTRAL WISCONSIN

CITY           SKY/WX    TMP DP  RH WIND       PRES   REMARKS
WAUSAU         CLOUDY    55  53  93 CALM      29.76F
MOSINEE        CLOUDY    55  55 100 CALM      29.78F
MARSHFIELD     LGT RAIN  55  52  89 CALM      29.77F
STEVENS POINT  LGT RAIN  55  55 100 CALM      29.78F
WAUPACA        LGT RAIN  59  57  95 SW3       29.78S
WAUTOMA        LGT RAIN  57  55  93 NW3         N/A
WISC RAPIDS    LGT RAIN  56  54  93 CALM      29.79F FOG
CAMP DOUGLAS   NOT AVBL
$$

WIZ011>013-019>022-031-037>040-048>050-281200-
NORTHEAST WISCONSIN

CITY           SKY/WX    TMP DP  RH WIND       PRES   REMARKS
ANTIGO         RAIN      54  54  99 SW5       29.79R
SHAWANO        LGT RAIN  59  55  89 CALM      29.76F
OCONTO         CLOUDY    58  54  88 CALM      29.73F
STURGEON BAY   CLOUDY    58  55  90 W5        29.74F
GREEN BAY      CLOUDY    60  56  86 NW9       29.74F
MANITOWOC      NOT AVBL
APPLETON       CLOUDY    57  52  82 W8        29.75F
CLINTONVILLE   LGT RAIN  57  54  88 CALM      29.76F
OSHKOSH        CLOUDY    60  53  77 W7        29.75F
$$

WIZ032>034-041-042-053>061-281200-
SOUTHWEST WISCONSIN

CITY           SKY/WX    TMP DP  RH WIND       PRES   REMARKS
LA CROSSE      CLOUDY    58  56  93 CALM      29.76F
SPARTA         CLOUDY    53  53 100 CALM      29.78F
VIROQUA        CLOUDY    56  53  91 SW3       29.79S
BOSCOBEL       CLOUDY    59  57  93 CALM      29.78F
PRAIRIE DU CHI CLOUDY    57  55  94 CALM      29.79R FOG
PLATTEVILLE    CLOUDY    58  57  97 N3        29.79R
$$

WIZ056-057-062-063-064-067-068-281200-
SOUTH CENTRAL WISCONSIN

CITY           SKY/WX    TMP DP  RH WIND       PRES   REMARKS
REEDSBURG      CLOUDY    56  56 100 CALM      29.77S
BARABOO/DELLS  LGT RAIN  56  55  94 CALM      29.77F
LONE ROCK      NOT AVBL
MINERAL POINT  CLOUDY    59  55  88 NE3       29.78S
MADISON        HVY RAIN  56  54  93 N8        29.75F FOG
MIDDLETON      CLOUDY    57  55  92 CALM      29.76F
WATERTOWN      TSTM      60  60 100 NW9       29.74R
MONROE         TSTM      55  54  94 N13G21    29.75S
JANESVILLE     CLOUDY    61  61 100 NW3       29.72F
$$

WIZ051-052-058>065-066-070>072-281200-
SOUTHEAST WISCONSIN

CITY           SKY/WX    TMP DP  RH WIND       PRES   REMARKS
MILWAUKEE      CLOUDY    59  54  83 SE7       29.73F
WAUKESHA       MOCLDY    57  55  94 CALM      29.74F
MILWAUKEE/TIMM   N/A     59  52  77 CALM      29.74F
RACINE         CLOUDY    54  51  90 CALM      29.74F
KENOSHA        CLOUDY    55  52  89 CALM      29.72F
FOND DU LAC    LGT RAIN  60  55  83 NW9       29.74F
SHEBOYGAN      CLOUDY    59  57  93 NW3       29.73F
WEST BEND      MOCLDY    57  55  94 W5        29.75S
JUNEAU         CLOUDY    60  54  82 W9        29.77R
$$

LSZ147-162-281200-
LAKE SUPERIOR

STATION/POSITION TIME  TEMP    WIND        PRES    WAVE
                       AIR SEA DIR/SP/G            HT/PER
                 (UTC) (F)     (DEG/KT/KT) (MB)    (FT/S)
W MID LAKE BUOY  0950   46 37  200/ 12/ 16 1006.2F   0
DEVILS ISLAND    1000   54     120/  7/  8 1005.7F
PORT WING        1040   58     180/  4/  6 1005.1F
SAXON HARBOR     1040   57     160/  3/  6 1006.1F
$$

LMZ867-665-643>646-281200-
LAKE MICHIGAN

STATION/POSITION TIME  TEMP    WIND        PRES    WAVE
                       AIR SEA DIR/SP/G            HT/PER
                 (UTC) (F)     (DEG/KT/KT) (MB)    (FT/S)
CHAMBERS ISLAND  1040   56     280/  2/  5 1006.4S
N MID LAKE BUOY  0950   50 42  210/  8/ 10 1008.4F
NORTHPORT PIER   1040   53      CALM  /  4 1006.4F
KEWAUNEE LAKESHO 1030   59     290/  3/  5 1006.7F
SHEBOYGAN LAKESH 1000   60     330/  3/  3 1007.1F
PORT WASHINGTON  1040   55      CALM  /  1 1007.8F
ATWATER BUOY     0909   52     190/  4/  4 1008.1F
MILWAUKEE LAKESH 1030   55     320/  1/  1   N/A
S MID LAKE BUOY  0950   54 49  340/  4/  6 1007.6F   0
KENOSHA   LAKESH 1000   58        CALM     1007.1
$$

TC  - TEMPERATURE IN CELSIUS
VSB - VISIBILITY IN STATUTE MILES
WCI - WIND CHILL INDEX
HX  - HEAT INDEX





USA.gov is the U.S. government's official web portal to all federal, state and local government web resources and services.